Regional Weather Roundup
Issued by NWS Green Bay, WI

Home | Current Version | Previous Version | Graphics & Text | Print | Product List | Glossary Off
Versions: 1 2 3 4 5 6 7 8 9 10 11 12 13 14 15 16 17 18 19 20 21 22 23 24 25 26 27 28 29 30 31 32 33 34 35 36 37 38 39 40 41 42 43 44 45 46 47 48 49 50

000
ASUS43 KGRB 300559
RWRGRB

NORTH-CENTRAL AND NORTHEAST WISCONSIN REGIONAL WEATHER ROUNDUP
NATIONAL WEATHER SERVICE GREEN BAY WI
100 AM CDT MON MAR 30 2015

WIZ005-009-010>012-018-019-300700-
NORTH CENTRAL WISCONSIN

CITY           SKY/WX    TMP DP  RH WIND       PRES   REMARKS
IRONWOOD       CLEAR     34  27  75 W10       29.77S
MANITOWISH WTR NOT AVBL
ARBOR VITAE    NOT AVBL
EAGLE RIVER    NOT AVBL
LAND O LAKES   NOT AVBL
RHINELANDER    CLEAR     31  26  82 W9        29.81R
PHILLIPS       CLEAR     32  27  81 W3        29.83S
ANTIGO         NOT AVBL
TOMAHAWK       NOT AVBL
MERRILL        NOT AVBL
$$

WIZ013-073-300700-
NORTHEAST WISCONSIN

CITY           SKY/WX    TMP DP  RH WIND       PRES   REMARKS
IRON MOUNTAIN  CLEAR     37  27  67 W15       29.72R
MARINETTE      CLEAR     36  28  75 W7        29.76R
$$

WIZ017-030-035>037-045-300700-
CENTRAL WISCONSIN

CITY           SKY/WX    TMP DP  RH WIND       PRES   REMARKS
MEDFORD        NOT AVBL
WAUSAU         CLEAR     35  29  78 W10       29.84R
MOSINEE        CLEAR     34  30  86 W9        29.87R
MARSHFIELD     CLEAR     37  27  67 NW9       29.88R
WISC RAPIDS      N/A     32  26  78 W6        29.91R
STEVENS POINT  NOT AVBL
WAUPACA        CLOUDY    39  31  73 W6        29.87R
SHAWANO        NOT AVBL
CLINTONVILLE   PTCLDY    36  28  75 W8        29.84R
$$

WIZ038-039-048-051-300700-
FOX VALLEY

CITY           SKY/WX    TMP DP  RH WIND       PRES   REMARKS
NWS GREEN BAY  CLEAR     37  30  75 W10       29.83R
APPLETON       NOT AVBL
OSHKOSH        PTCLDY    37  30  75 W7        29.87R
FOND DU LAC    CLOUDY    39  30  70 W9        29.88R
$$

WIZ022-050-052-300700-
EAST CENTRAL WISCONSIN

CITY           SKY/WX    TMP DP  RH WIND       PRES   REMARKS
STURGEON BAY   CLEAR     36  28  75 W9        29.80R
MANITOWOC      NOT AVBL
SHEBOYGAN      CLEAR     38  29  70 W10       29.85R
$$

LMZ563-521-522-541>543-300700-
LAKESHORE

STATION/POSITION TIME  TEMP    WIND        PRES    VSBY  WAVE
                       AIR SEA DIR/SP/G                  HT/PER
                 (UTC) (F)     (DEG/KT/KT) (MB)    (MI)  (FT/S)
SHEBOYGAN LKSHOR 0500   41     280/ 14/ 16 1011.1R
KEWAUNEE LKSHORE 0500   38     300/ 11/ 15 1008.0R
NORTHPORT PIER   0500   38     290/  9/ 16 1007.1R
SISTER BAY LKSHO 0500   37     300/ 16/ 21   N/A
CHAMBERS ISLAND  0500   37     240/  3/  8 1007.8R
MENOMINEE LKSHOR 0500   38     270/  9     1008.5R
$$


USA.gov is the U.S. government's official web portal to all federal, state and local government web resources and services.